CW4829 Weather Reports


Display with metric or nautical units.
time (UTC)temp
F
wind
direction
speed
MPH
gust
MPH
rain 1hr
in
rain 24hr
in
rain mn
in
humidity
%
barometer
mb
20260902160019 87 186 3.0 7.0 0.00 0.00 0.00 69 1015.1
20260902155538 87 225 2.0 7.0 0.00 0.00 0.00 70 1015.4
20260902155104 87 194 4.0 7.0 0.00 0.00 0.00 70 1015.4
20260902154132 86 224 2.0 5.0 0.00 0.00 0.00 72 1015.4
20260902153525 86 158 2.0 8.0 0.00 0.00 0.00 73 1015.4
20260902153033 86 207 4.0 8.0 0.00 0.00 0.00 72 1015.4
20260902152539 86 188 1.0 7.0 0.00 0.00 0.00 74 1015.3
20260902152055 85 188 3.0 7.0 0.00 0.00 0.00 73 1015.3
20260902151610 85 180 3.0 7.0 0.00 0.00 0.00 73 1015.3
20260902151114 85 170 1.0 5.0 0.00 0.00 0.00 75 1015.4
20260902150518 85 188 2.0 5.0 0.00 0.00 0.00 76 1015.4
20260902145519 84 205 2.0 7.0 0.00 0.00 0.00 77 1015.4
20260902145032 84 195 3.0 7.0 0.00 0.00 0.00 76 1015.4
20260902144553 84 184 3.0 5.0 0.00 0.00 0.00 77 1015.4
20260902144116 84 209 2.0 4.0 0.00 0.00 0.00 77 1015.3
20260902143521 83 207 1.0 5.0 0.00 0.00 0.00 79 1015.3
20260902143045 83 208 1.0 4.0 0.00 0.00 0.00 80 1015.3
20260902142033 81 238 2.0 5.0 0.00 0.00 0.00 80 1015.3
20260902141542 81 163 2.0 6.0 0.00 0.00 0.00 80 1015.3
20260902141018 81 212 3.0 6.0 0.00 0.00 0.00 80 1015.2
20260902140542 81 217 0.0 5.0 0.00 0.00 0.00 82 1015.2
20260902140049 81 217 1.0 5.0 0.00 0.00 0.00 82 1015.2
20260902135612 81 257 1.0 5.0 0.00 0.00 0.00 83 1015.2
20260902135101 80 202 2.0 5.0 0.00 0.00 0.00 83 1015.2
20260902134624 80 178 2.0 6.0 0.00 0.00 0.00 83 1015.2
20260902134115 79 209 3.0 6.0 0.00 0.00 0.00 83 1015.2
20260902133027 80 196 2.0 7.0 0.00 0.00 0.00 84 1015.2
20260902132547 79 249 2.0 7.0 0.00 0.00 0.00 84 1015.0
20260902131525 79 151 2.0 6.0 0.00 0.00 0.00 86 1015.0
20260902131032 78 179 2.0 6.0 0.00 0.00 0.00 86 1015.0
20260902130555 78 201 1.0 6.0 0.00 0.00 0.00 87 1015.0
20260902125541 77 192 2.0 5.0 0.00 0.00 0.00 89 1014.9
20260902124523 76 217 1.0 3.0 0.00 0.00 0.00 91 1014.9
20260902124029 76 217 1.0 3.0 0.00 0.00 0.00 91 1014.9
20260902123556 76 217 1.0 4.0 0.00 0.00 0.00 91 1014.9
20260902123112 75 217 2.0 4.0 0.00 0.00 0.00 92 1014.9
20260902122550 75 217 1.0 3.0 0.00 0.00 0.00 92 1014.9
20260902122102 74 217 1.0 3.0 0.00 0.00 0.00 92 1014.9
20260902121030 74 217 0.0 0.0 0.00 0.00 0.00 93 1014.9
20260902120601 73 217 0.0 0.0 0.00 0.00 0.00 93 1014.9
20260902120119 73 217 0.0 0.0 0.00 0.00 0.00 93 1014.9
20260902115526 73 217 0.0 0.0 0.00 0.00 0.00 93 1014.9
20260902115040 73 217 0.0 0.0 0.00 0.00 0.00 93 1014.9
20260902114600 73 217 0.0 0.0 0.00 0.00 0.00 93 1014.9
20260902114027 72 217 0.0 0.0 0.00 0.00 0.00 93 1014.7
20260902113548 72 217 0.0 0.0 0.00 0.00 0.00 93 1014.7
20260902113047 72 217 0.0 0.0 0.00 0.00 0.00 93 1014.7
20260902112611 72 217 0.0 0.0 0.00 0.00 0.00 93 1014.7
20260902112112 72 217 0.0 0.0 0.00 0.00 0.00 92 1014.7
20260902111019 72 217 0.0 0.0 0.00 0.00 0.00 92 1014.6
20260902110030 72 217 0.0 0.0 0.00 0.00 0.00 92 1014.6
20260902105535 73 217 0.0 0.0 0.00 0.00 0.00 92 1014.4
20260902104547 72 217 0.0 0.0 0.00 0.00 0.00 92 1014.4
20260902104048 72 217 0.0 0.0 0.00 0.00 0.00 92 1014.4
20260902103559 72 217 0.0 0.0 0.00 0.00 0.00 92 1014.4
20260902103057 72 217 0.0 0.0 0.00 0.00 0.00 92 1014.4
20260902102018 72 217 0.0 0.0 0.00 0.00 0.00 92 1014.4
20260902101537 72 217 0.0 0.0 0.00 0.00 0.00 92 1014.4
20260902101101 72 217 0.0 0.0 0.00 0.00 0.00 92 1014.4
20260902100549 72 217 0.0 0.0 0.00 0.00 0.00 92 1014.4
20260902095530 72 217 0.0 0.0 0.00 0.00 0.00 91 1014.4
20260902095029 72 217 0.0 0.0 0.00 0.00 0.00 91 1014.4
20260902094548 72 217 0.0 0.0 0.00 0.00 0.00 91 1014.4
20260902094052 73 217 0.0 0.0 0.00 0.00 0.00 91 1014.4
20260902093556 73 217 0.0 0.0 0.00 0.00 0.00 91 1014.4
20260902093106 73 217 0.0 0.0 0.00 0.00 0.00 91 1014.4
20260902092552 72 217 0.0 0.0 0.00 0.00 0.00 91 1014.4
20260902091534 73 217 0.0 0.0 0.00 0.00 0.00 90 1014.4
20260902091052 73 217 0.0 0.0 0.00 0.00 0.00 90 1014.4
20260902090550 73 217 0.0 0.0 0.00 0.00 0.00 90 1014.4
20260902090049 73 217 0.0 0.0 0.00 0.00 0.00 90 1014.4
20260902084518 73 217 0.0 0.0 0.00 0.00 0.00 90 1014.4
20260902084044 73 217 0.0 0.0 0.00 0.00 0.00 90 1014.3
20260902083034 73 217 0.0 0.0 0.00 0.00 0.00 90 1014.3
20260902082538 73 217 0.0 0.0 0.00 0.00 0.00 89 1014.2
20260902081521 74 217 0.0 0.0 0.00 0.00 0.00 89 1014.2
20260902081042 74 217 0.0 0.0 0.00 0.00 0.00 89 1014.1
20260902080609 74 217 0.0 0.0 0.00 0.00 0.00 89 1014.1
20260902075559 74 217 0.0 0.0 0.00 0.00 0.00 88 1014.0
20260902075102 74 217 0.0 0.0 0.00 0.00 0.00 88 1014.0
20260902074625 74 217 0.0 0.0 0.00 0.00 0.00 88 1014.0
20260902074113 74 217 0.0 0.0 0.00 0.00 0.00 88 1014.0
20260902073053 75 217 0.0 0.0 0.00 0.00 0.00 88 1014.0
20260902072606 75 217 0.0 0.0 0.00 0.00 0.00 88 1014.0
20260902072109 75 217 0.0 0.0 0.00 0.00 0.00 88 1014.0
20260902071558 75 217 0.0 0.0 0.00 0.00 0.00 88 1014.0
20260902071109 75 217 0.0 0.0 0.00 0.00 0.00 88 1013.9
20260902070017 75 217 0.0 0.0 0.00 0.00 0.00 87 1013.9
20260902065540 75 217 0.0 0.0 0.00 0.00 0.00 87 1013.9
20260902064026 75 217 0.0 0.0 0.00 0.00 0.00 87 1013.9
20260902063600 75 217 0.0 0.0 0.00 0.00 0.00 87 1013.9
20260902063113 75 217 0.0 0.0 0.00 0.00 0.00 87 1013.9
20260902062616 75 217 0.0 0.0 0.00 0.00 0.00 86 1013.9